This is the latest recevied weather packets stored in our database for station/object EFOU. If no packets are shown the sender has not sent any weather packets the latest 10 day(s).
| Time | Temp. | Humidity | Pressure | Rain* | Wind** | Luminosity | Snow |
|---|---|---|---|---|---|---|---|
| 1778324852 | 15° C | 22% | 1025.4 hPa | - | - | - | - |
| 1778323652 | 15° C | 23% | 1025.7 hPa | - | - | - | - |
| 1778322452 | 15° C | 24% | 1025.7 hPa | - | - | - | - |
| 1778321252 | 15° C | 27% | 1025.9 hPa | - | - | - | - |
| 1778320052 | 15° C | 26% | 1026 hPa | - | - | - | - |
| 1778318852 | 15° C | 23% | 1026.1 hPa | - | - | - | - |
| 1778317652 | 14.44° C | 25% | 1026.2 hPa | - | - | - | - |
| 1778315252 | 14.44° C | 26% | 1026.6 hPa | - | - | - | - |
| 1778314052 | 13.33° C | 27% | 1026.8 hPa | - | - | - | - |
| 1778312852 | 13.33° C | 28% | 1026.8 hPa | - | - | - | - |
| 1778311652 | 12.22° C | 32% | 1027.1 hPa | - | - | - | - |
| 1778310452 | 11.11° C | 32% | 1027.2 hPa | - | - | - | - |
| 1778309252 | 11.11° C | 31% | 1027.2 hPa | - | - | - | - |
| 1778308051 | 10.56° C | 35% | 1027.2 hPa | - | - | - | - |
| 1778306851 | 10° C | 35% | 1027.3 hPa | - | - | - | - |
| 1778304451 | 8.33° C | 45% | 1027.4 hPa | - | - | - | - |
| 1778303252 | 7.78° C | 46% | 1027.5 hPa | - | - | - | - |
| 1778302051 | 6.67° C | 48% | 1027.6 hPa | - | - | - | - |
| 1778300851 | 5.56° C | 50% | 1027.7 hPa | - | - | - | - |
| 1778299651 | 5° C | 52% | 1027.7 hPa | - | - | - | - |
| 1778298451 | 4.44° C | 53% | 1027.8 hPa | - | - | - | - |
| 1778297251 | 3.33° C | 57% | 1027.9 hPa | - | - | - | - |
| 1778296050 | 1.67° C | 64% | 1027.9 hPa | - | - | - | - |
| 1778294851 | -0.56° C | 73% | 1028.1 hPa | - | - | - | - |
| 1778293651 | -0.56° C | 74% | 1028.1 hPa | - | - | - | - |
* Rain since midnight (hover to see other rain measurements)
** Current wind speed in m/s (hover to see current wind gust speed)